Location: Plzen
(49.7500°N, 13.3670°E)
Time: 12:10:36
(UTC+01:00)

ISS - Visible Passes

Search period start: 10 December 2019 00:00
Search period end: 20 December 2019 00:00
Orbit: 411 x 421 km, 51.6° (Epoch: 10 December)

Date Brightness Start Highest point End Pass type
(mag) Time Alt. Az. Time Alt. Az. Time Alt. Az.
10 Dec -2.8 16:49:50 10° WNW 16:53:06 49° SSW 16:56:21 10° SE visible
10 Dec -0.5 18:28:18 10° WSW 18:29:12 11° SW 18:30:07 10° SSW visible
11 Dec -0.7 17:38:44 10° W 17:40:57 17° SW 17:43:11 10° S visible
12 Dec -1.2 16:49:51 10° W 16:52:38 25° SW 16:55:26 10° SSE visible
14 Dec -0.1 16:50:45 10° WSW 16:51:58 12° SW 16:53:11 10° SSW visible
